AirNav   Everest Fuels
 
 1456 users online  

IA46 Wayne County Hospital Heliport
Corydon, Iowa, USA

GOING TO CORYDON?


FAA INFORMATION EFFECTIVE 31 DECEMBER 2020

Location

FAA Identifier: IA46
Lat/Long: 40-45-14.3300N 093-18-37.9200W
40-45.238833N 093-18.632000W
40.7539806,-93.3105333
(estimated)
Elevation: 1093 ft. / 333 m (estimated)
Variation: 04E (1990)
Time zone: UTC -6 (UTC -5 during Daylight Saving Time)
Zip code: 50060

Heliport Operations

Heliport use: Private use, MEDICAL USE.
Activation date: 04/1991
Control tower: no
ARTCC: CHICAGO CENTER
FSS: FORT DODGE FLIGHT SERVICE STATION
Attendance: UNATNDD
Wind indicator: yes
Segmented circle: yes

Heliport Communications

WX AWOS-3 at CNC (16 nm N): 125.525 (641-774-5645)
WX AWOS-3 at TVK (19 nm E): 123.775 (641-437-1213)

Nearby radio navigation aids

VOR radial/distance  VOR name  Freq  Var
LMNr065/31.4LAMONI VOR/DME116.7007E

Heliport Services

Runway Information

Helipad H1

Dimensions: 35 x 35 ft. / 11 x 11 m
Surface: concrete
Latitude: 40-45.238833N
Longitude: 093-18.632000W
Elevation: 1093.0 ft.
Traffic pattern: leftleft

Heliport Ownership and Management from official FAA records

Ownership: Publicly-owned
Owner: WAYNE CO. HOSPITAL
417 S. EAST STREET
CORYDON, IA 50060
Phone 641-872-2260
Manager: DAREN RELPH
417 S. EAST STREET
CORYDON, IA 50060
Phone 641-872-5258
ADDITIONAL CONTACT: JOSH HYSELL 641-872-2260 EXT 5338 JHYSELL@WAYNECOUNTYHOSPITAL.ORG

Additional Remarks

A52-H1 20 FT BLDG 40 FT WEST; 40 FT PLINE (MARKED) 60 FT SOUTH.
OWNER DESIRES ARPT NOT BE CHARTED.
FOR CD CTC CHICAGO ARTCC AT 630-906-8921.

Instrument Procedures

There are no published instrument procedures at IA46.

Some nearby airports with instrument procedures:

KCNC - Chariton Municipal Airport (16 nm N)
KTVK - Centerville Municipal Airport (19 nm E)
I75 - Osceola Municipal Airport (25 nm NW)
KLWD - Lamoni Municipal Airport (28 nm W)
4C8 - Albia Municipal Airport (29 nm NE)
 
Loc | Ops | Rwys | IFR | FBO | Links
Com | Nav | Svcs | Stats | Notes
Area around IA46 (Wayne County Hospital Heliport)
 
Road maps at: MapQuest Bing Google
 
Aerial photo
No photo
 
Sectional chart

 
Airport distance calculator
Flying to Wayne County Hospital Heliport? Find the distance to fly.

From to IA46

Sunrise and sunset
Times for 15-Jan-2021
 Local
(UTC-6)
 Zulu
(UTC)
Morning civil twilight07:0613:06
Sunrise07:3613:36
Sunset17:0923:09
Evening civil twilight17:3923:39

Current date and time
Zulu (UTC)  15-Jan-2021 17:10:32
Local (UTC-6)  15-Jan-2021 11:10:32
 
METAR
KCNC 
16nm N 
151655Z AUTO 36017G25KT 7SM BKN008 BKN013 01/00 A2938 RMK AO2 P0004
KTVK 
19nm E 
151635Z AUTO 9SM SCT003 BKN008 00/00 A2937 RMK AO2
KI75 
25nm NW 
151655Z AUTO 33012G18KT 10SM OVC006 01/00 A2941 RMK AO2 T00100001
KLWD 
28nm W 
151653Z AUTO 33019G33KT 7SM OVC010 00/M02 A2941 RMK AO2 PK WND 32033/1647 UPB1554E1556SNE1554 SLP969 P0000 T00001022
TAF
KOTM 
44nm NE 
151624Z 1516/1612 36010KT P6SM VCSH SCT009 BKN018 OVC030 TEMPO 1516/1519 BKN009 FM160200 33010KT P6SM OVC010
KDSM 
49nm N 
151624Z 1516/1612 35014G21KT 6SM BLSN VCSH SCT009 BKN018 OVC030 TEMPO 1516/1520 4SM -SHSN BKN010 FM160300 33013G20KT P6SM OVC008
NOTAMs
Click for the latest NOTAMs
NOTAMs are issued by the DoD/FAA and will open in a separate window not controlled by AirNav.

 

 
 

Would you like to see your business listed on this page?

 If your business provides an interesting product or service to pilots, flight crews, aircraft, or users of the Wayne County Hospital Heliport, you should consider listing it here.  To start the listing process, click on the button below
 
Add a business
 

Other Pages about Wayne County Hospital Heliport

Update a link
 
Copyright © AirNav, LLC. All rights reserved. Privacy Policy  Contact